Weather History for Mustang Island A85A, TX

Change the Weather History Date:

Thursday, February 21, 2013

  Actual Average Record
Temperature  
Mean Temperature 70 °F -  
Max Temperature 73 °F - - ()
Min Temperature 68 °F - - ()
Cooling Degree Days 6    
Growing Degree Days 20 (Base 50)    
Moisture  
Dew Point 68 °F    
Average Humidity 88    
Maximum Humidity 94    
Minimum Humidity 57    
Precipitation  
Precipitation 0.00 in - - ()
Sea Level Pressure  
Sea Level Pressure 29.72 in    
Wind  
Wind Speed 16 mph ()    
Max Wind Speed 24 mph    
Max Gust Speed 32 mph    
Visibility 3.6 miles    
Events      
T = Trace of Precipitation, MM = Missing Value Source: Averaged Metar Reports

Daily Weather History Graph

Daily Weather History Graph

Search for Another Location

Airport:

Trip Planner

Search our weather history database for the weather conditions in past years. The results will help you decide how hot, cold, wet, or windy it might be!

Date:

Astronomy

Feb. 21, 2013 Rise Set
Actual Time 6:56 AM CST 6:20 PM CST
Civil Twilight 6:32 AM CST 6:44 PM CST
Nautical Twilight 6:05 AM CST 7:11 PM CST
Astronomical Twilight 5:38 AM CST 7:38 PM CST
Moon 2:49 PM CST (2/21) 3:48 AM CST (2/21)
Length of Visible Light 12h 11m
Length of Day
11h 23m
Waxing Gibbous, 84% of the Moon is Illuminated
Feb 21
Waxing Gibbous
Feb 25
Full
Mar 4
Last Quarter
Mar 11
New
Mar 19
First Quarter

Hourly Weather History & Observations

Time (CST) Temp. Dew Point Humidity Pressure Visibility Wind Dir Wind Speed Gust Speed Precip Events Conditions
12:15 AM 71.6 °F 69.8 °F 94% 29.72 in 3.0 mi SE 15.0 mph 31.1 mph N/A   Mostly Cloudy
12:35 AM 71.6 °F 69.8 °F 94% 29.70 in 3.0 mi ESE 18.4 mph 28.8 mph N/A   Overcast
12:55 AM 71.6 °F 69.8 °F 94% 29.70 in 3.0 mi SE 16.1 mph 24.2 mph N/A   Mostly Cloudy
1:15 AM 71.6 °F 69.8 °F 94% 29.70 in 3.0 mi SE 16.1 mph 29.9 mph N/A   Overcast
1:35 AM 71.6 °F 69.8 °F 94% 29.70 in 2.5 mi SE 17.3 mph 25.3 mph N/A   Overcast
1:55 AM 71.6 °F 69.8 °F 94% 29.69 in 2.5 mi SE 20.7 mph 28.8 mph N/A   Mostly Cloudy
2:15 AM 71.6 °F 69.8 °F 94% 29.69 in 2.0 mi SE 20.7 mph - N/A   Mostly Cloudy
2:35 AM 71.6 °F 69.8 °F 94% 29.68 in 2.5 mi SSE 20.7 mph 27.6 mph N/A   Mostly Cloudy
2:55 AM 71.6 °F 69.8 °F 94% 29.68 in 2.5 mi SSE 17.3 mph 25.3 mph N/A   Mostly Cloudy
3:15 AM 71.6 °F 69.8 °F 94% 29.68 in 2.5 mi SSE 18.4 mph 26.5 mph N/A   Mostly Cloudy
3:35 AM 71.6 °F 69.8 °F 94% 29.68 in 2.5 mi SSE 17.3 mph 25.3 mph N/A   Mostly Cloudy
3:55 AM 71.6 °F 69.8 °F 94% 29.67 in - SSE 19.6 mph 26.5 mph N/A   Unknown
4:15 AM 71.6 °F 69.8 °F 94% 29.66 in 2.5 mi SSE 18.4 mph 25.3 mph N/A   Overcast
4:35 AM 71.6 °F 69.8 °F 94% 29.66 in 3.0 mi SSE 19.6 mph 28.8 mph N/A   Overcast
4:55 AM 71.6 °F 69.8 °F 94% 29.65 in 2.5 mi SSE 21.9 mph 29.9 mph N/A   Overcast
5:15 AM 71.6 °F 69.8 °F 94% 29.66 in 2.5 mi SSE 20.7 mph 32.2 mph N/A   Mostly Cloudy
5:35 AM 71.6 °F 69.8 °F 94% 29.66 in 2.5 mi SSE 18.4 mph 27.6 mph N/A   Mostly Cloudy
6:15 AM 71.6 °F 69.8 °F 94% 29.65 in 2.5 mi SSE 21.9 mph 31.1 mph N/A   Mostly Cloudy
6:35 AM 71.6 °F 69.8 °F 94% 29.66 in 2.5 mi SSE 19.6 mph 29.9 mph N/A   Mostly Cloudy
6:55 AM 71.6 °F 69.8 °F 94% 29.67 in 2.5 mi SSE 20.7 mph 29.9 mph N/A   Mostly Cloudy
7:15 AM 71.6 °F 69.8 °F 94% 29.67 in 2.5 mi SSE 20.7 mph 27.6 mph N/A   Mostly Cloudy
7:35 AM 71.6 °F 69.8 °F 94% 29.67 in 2.5 mi SSE 23.0 mph 28.8 mph N/A   Mostly Cloudy
7:55 AM 71.6 °F 69.8 °F 94% 29.68 in 2.5 mi SSE 20.7 mph - N/A   Mostly Cloudy
8:15 AM 71.6 °F 69.8 °F 94% 29.69 in 2.5 mi SSE 19.6 mph 27.6 mph N/A   Overcast
8:35 AM 71.6 °F 69.8 °F 94% 29.69 in 2.5 mi SSE 19.6 mph 26.5 mph N/A   Overcast
8:55 AM 71.6 °F 69.8 °F 94% 29.69 in 2.5 mi SSE 18.4 mph - N/A   Overcast
9:15 AM 71.6 °F 69.8 °F 94% 29.70 in 2.5 mi SSE 17.3 mph 26.5 mph N/A   Overcast
9:35 AM 71.6 °F 69.8 °F 94% 29.70 in 2.5 mi SSE 16.1 mph 24.2 mph N/A   Overcast
10:15 AM 73.4 °F 69.8 °F 88% 29.70 in 2.5 mi SSE 19.6 mph - N/A   Overcast
10:35 AM 73.4 °F 69.8 °F 88% 29.70 in 2.5 mi SSE 16.1 mph 23.0 mph N/A   Overcast
11:15 AM 73.4 °F 69.8 °F 88% 29.71 in 2.5 mi SSE 11.5 mph 19.6 mph N/A   Mostly Cloudy
11:35 AM 73.4 °F 69.8 °F 88% 29.71 in 2.5 mi South 11.5 mph - N/A   Scattered Clouds
11:55 AM 73.4 °F 69.8 °F 88% 29.71 in 2.0 mi South 13.8 mph 21.9 mph N/A   Mostly Cloudy
12:15 PM 73.4 °F 69.8 °F 88% 29.71 in 2.0 mi South 16.1 mph 24.2 mph N/A   Mostly Cloudy
12:35 PM 73.4 °F 69.8 °F 88% 29.71 in 2.0 mi South 20.7 mph - N/A   Overcast
12:55 PM 71.6 °F 69.8 °F 94% 29.71 in 2.0 mi SSW 18.4 mph 24.2 mph N/A   Mostly Cloudy
1:15 PM 71.6 °F 69.8 °F 94% 29.72 in 2.0 mi SW 16.1 mph - N/A   Scattered Clouds
1:35 PM 71.6 °F 69.8 °F 94% 29.72 in 2.0 mi West 15.0 mph - N/A   Partly Cloudy
1:55 PM 71.6 °F 69.8 °F 94% 29.70 in 2.0 mi SW 15.0 mph - N/A   Scattered Clouds
2:15 PM 71.6 °F 69.8 °F 94% 29.70 in 2.0 mi SSW 16.1 mph - N/A   Scattered Clouds
2:35 PM 71.6 °F 69.8 °F 94% 29.69 in 2.0 mi SSW 17.3 mph - N/A   Partly Cloudy
2:55 PM 71.6 °F 69.8 °F 94% 29.68 in 2.0 mi South 18.4 mph - N/A   Partly Cloudy
3:15 PM 73.4 °F 69.8 °F 88% 29.68 in 2.0 mi South 16.1 mph - N/A   Partly Cloudy
3:35 PM 73.4 °F 69.8 °F 88% 29.69 in 2.0 mi South 15.0 mph - N/A   Partly Cloudy
3:55 PM 71.6 °F 69.8 °F 94% 29.69 in 2.0 mi South 12.7 mph - N/A   Clear
4:15 PM 71.6 °F 69.8 °F 94% 29.70 in 2.0 mi South 9.2 mph - N/A   Partly Cloudy
4:35 PM 71.6 °F 69.8 °F 94% 29.71 in 2.0 mi WSW 8.1 mph - N/A   Scattered Clouds
4:55 PM 71.6 °F 69.8 °F 94% 29.71 in 1.8 mi WSW 9.2 mph - N/A   Mostly Cloudy
5:15 PM 71.6 °F 69.8 °F 94% 29.71 in 1.8 mi WSW 8.1 mph - N/A   Scattered Clouds
6:15 PM 71.6 °F 69.8 °F 94% 29.74 in 2.0 mi WSW 3.5 mph - N/A   Partly Cloudy
6:55 PM 71.6 °F 69.8 °F 94% 29.75 in 2.5 mi Calm Calm - N/A   Mostly Cloudy
7:15 PM 71.6 °F 69.8 °F 94% 29.76 in 2.5 mi Calm Calm - N/A   Mostly Cloudy
7:35 PM 71.6 °F 69.8 °F 94% 29.77 in 2.0 mi NW 10.4 mph - N/A   Mostly Cloudy
7:55 PM 69.8 °F 68.0 °F 94% 29.78 in 2.0 mi NW 12.7 mph - N/A   Overcast
8:15 PM 68.0 °F 66.2 °F 94% 29.79 in 4.0 mi North 16.1 mph - N/A   Overcast
8:35 PM 69.8 °F 60.8 °F 73% 29.79 in 8.0 mi North 21.9 mph - N/A   Mostly Cloudy
8:55 PM 69.8 °F 59.0 °F 68% 29.79 in 10.0 mi NNE 24.2 mph - N/A   Unknown
9:15 PM 69.8 °F 57.2 °F 64% 29.80 in 10.0 mi NNE 24.2 mph - N/A   Overcast
9:35 PM 69.8 °F 57.2 °F 64% 29.81 in 10.0 mi NNE 24.2 mph - N/A   Overcast
9:55 PM 69.8 °F 57.2 °F 64% 29.82 in 10.0 mi NNE 23.0 mph - N/A   Overcast
10:15 PM 69.8 °F 55.4 °F 60% 29.81 in 10.0 mi NNE 24.2 mph - N/A   Unknown
10:35 PM 71.6 °F 57.2 °F 60% 29.81 in 10.0 mi NE 23.0 mph - N/A   Unknown
10:55 PM 71.6 °F 57.2 °F 60% 29.80 in 10.0 mi NE 20.7 mph - N/A   Unknown
11:15 PM 73.4 °F 57.2 °F 57% 29.80 in 10.0 mi NE 17.3 mph 23.0 mph N/A   Unknown
11:35 PM 73.4 °F 59.0 °F 61% 29.80 in 10.0 mi NE 15.0 mph - N/A   Unknown
11:55 PM 73.4 °F 59.0 °F 61% 29.80 in 10.0 mi NE 17.3 mph - N/A   Overcast